GW2771 Weather Reports


Display with metric or nautical units.
time (UTC)temp
F
wind
direction
speed
MPH
gust
MPH
rain 1hr
in
rain 24hr
in
rain mn
in
humidity
%
barometer
mb
20260506125505 40 205 0.0 3.0 0.00 0.04 0.00 83 1029.2
20260506125019 40 205 0.0 3.0 0.00 0.04 0.00 84 1029.2
20260506124551 39 205 0.0 2.0 0.00 0.04 0.00 84 1029.1
20260506124003 39 205 1.0 2.0 0.00 0.04 0.00 83 1029.1
20260506123506 40 205 0.0 2.0 0.00 0.04 0.00 82 1029.0
20260506123020 40 205 1.0 2.0 0.00 0.04 0.00 83 1028.9
20260506122524 40 178 0.0 3.0 0.00 0.04 0.00 83 1028.8
20260506122033 40 181 0.0 3.0 0.00 0.04 0.00 84 1028.6
20260506121507 39 189 1.0 3.0 0.00 0.04 0.00 85 1028.4
20260506121015 39 186 1.0 3.0 0.00 0.04 0.00 85 1028.3
20260506120518 39 188 0.0 2.0 0.00 0.04 0.00 86 1028.2
20260506120033 39 188 0.0 3.0 0.00 0.04 0.00 87 1028.2
20260506115536 39 189 1.0 3.0 0.00 0.04 0.00 87 1028.2
20260506115046 38 189 0.0 3.0 0.00 0.04 0.00 87 1028.2
20260506114555 38 189 0.0 3.0 0.00 0.04 0.00 86 1028.1
20260506114003 38 233 0.0 2.0 0.00 0.04 0.00 85 1028.0
20260506113503 38 233 0.0 1.0 0.00 0.04 0.00 85 1027.9
20260506113014 38 276 0.0 1.0 0.00 0.04 0.00 84 1027.9
20260506112522 39 276 0.0 1.0 0.00 0.04 0.00 83 1027.6
20260506112022 39 276 0.0 1.0 0.00 0.04 0.00 83 1027.6
20260506111539 39 276 0.0 1.0 0.00 0.04 0.00 83 1027.5
20260506111039 39 276 0.0 0.0 0.00 0.04 0.00 82 1027.5
20260506110548 40 276 0.0 0.0 0.00 0.04 0.00 82 1027.4
20260506110104 40 276 0.0 2.0 0.00 0.04 0.00 82 1027.2
20260506105505 40 276 0.0 2.0 0.00 0.04 0.00 82 1027.1
20260506105010 40 276 0.0 2.0 0.00 0.04 0.00 82 1026.9
20260506104520 40 276 0.0 1.0 0.00 0.04 0.00 82 1026.9
20260506104025 40 276 0.0 4.0 0.00 0.04 0.00 81 1026.8
20260506103529 41 276 1.0 4.0 0.00 0.04 0.00 81 1026.8
20260506103049 41 189 0.0 3.0 0.00 0.04 0.00 80 1026.7
20260506102549 41 189 0.0 4.0 0.00 0.04 0.00 80 1026.7
20260506102057 41 201 1.0 4.0 0.00 0.04 0.00 81 1026.7
20260506101522 41 197 1.0 4.0 0.00 0.04 0.00 80 1026.6
20260506101015 41 185 0.0 1.0 0.00 0.04 0.00 80 1026.5
20260506100525 42 185 0.0 2.0 0.00 0.04 0.00 80 1026.3
20260506100049 42 185 0.0 2.0 0.00 0.04 0.00 79 1026.3
20260506095559 42 185 0.0 2.0 0.00 0.04 0.00 79 1026.3
20260506095056 42 185 0.0 2.0 0.00 0.04 0.00 78 1026.2
20260506094515 43 185 0.0 0.0 0.00 0.04 0.00 78 1026.1
20260506094116 43 185 0.0 1.0 0.00 0.04 0.00 77 1026.0
20260506093517 43 186 0.0 2.0 0.00 0.04 0.00 77 1026.0
20260506093033 43 186 0.0 1.0 0.00 0.04 0.00 78 1026.0
20260506092542 44 186 0.0 2.0 0.00 0.04 0.00 75 1026.0
20260506092045 44 185 0.0 2.0 0.00 0.04 0.00 75 1026.0
20260506091555 44 185 0.0 0.0 0.00 0.04 0.00 75 1026.1
20260506091059 45 185 0.0 0.0 0.00 0.04 0.00 74 1026.1
20260506090505 45 185 0.0 0.0 0.00 0.04 0.00 73 1026.0
20260506090023 45 185 0.0 1.0 0.00 0.04 0.00 72 1026.0
20260506085523 46 185 0.0 2.0 0.00 0.04 0.00 72 1026.0
20260506085034 46 186 0.0 3.0 0.00 0.04 0.00 71 1026.1
20260506084544 46 186 0.0 3.0 0.00 0.04 0.00 72 1026.1
20260506084041 47 221 0.0 4.0 0.00 0.04 0.00 71 1026.1
20260506083549 47 279 0.0 3.0 0.00 0.04 0.00 71 1026.1
20260506083100 47 290 1.0 3.0 0.00 0.04 0.00 70 1026.1
20260506082506 48 348 0.0 2.0 0.00 0.04 0.00 70 1026.1
20260506082012 48 349 0.0 3.0 0.00 0.04 0.00 69 1026.1
20260506081525 48 349 1.0 3.0 0.00 0.04 0.00 70 1026.2
20260506081033 48 88 0.0 5.0 0.00 0.04 0.00 70 1026.1
20260506080539 48 65 1.0 5.0 0.00 0.04 0.00 71 1026.0
20260506073529 49 127 0.0 3.0 0.00 0.04 0.00 71 1025.8
20260506073046 49 127 0.0 4.0 0.00 0.04 0.00 71 1025.6
20260506072551 49 127 2.0 4.0 0.00 0.04 0.00 71 1025.7
20260506072100 49 297 1.0 6.0 0.00 0.04 0.00 73 1025.7
20260506072001 49 303 1.0 6.0 0.00 0.04 0.00 74 1025.7
20260506071515 48 343 2.0 6.0 0.00 0.04 0.00 77 1025.5
20260506071018 48 315 0.0 0.0 0.00 0.04 0.00 78 1025.5
20260506070519 48 315 0.0 0.0 0.00 0.04 0.00 76 1025.5
20260506062030 50 315 0.0 1.0 0.00 0.04 0.00 73 1025.0
20260506061505 50 315 0.0 2.0 0.00 0.04 0.00 72 1024.9
20260506061016 51 315 0.0 3.0 0.00 0.04 0.00 72 1024.9
20260506060517 51 315 2.0 3.0 0.00 0.04 0.00 72 1024.9
20260506051021 52 330 0.0 2.0 0.00 0.04 0.04 67 1024.5
20260506050525 53 331 0.0 4.0 0.00 0.04 0.04 67 1024.3
20260506045056 53 330 2.0 5.0 0.00 0.04 0.04 65 1024.3
20260506044510 54 337 1.0 6.0 0.00 0.04 0.04 64 1024.3
20260506044026 54 318 2.0 6.0 0.00 0.04 0.04 64 1024.3
20260506043521 54 329 3.0 9.0 0.00 0.04 0.04 63 1024.3
20260506043034 54 324 4.0 9.0 0.00 0.04 0.04 63 1024.2
20260506042543 54 14 2.0 5.0 0.00 0.04 0.04 63 1024.2
20260506042050 55 324 1.0 3.0 0.00 0.04 0.04 62 1024.0
20260506041531 55 309 0.0 6.0 0.00 0.04 0.04 62 1024.0
20260506041027 55 354 2.0 6.0 0.00 0.04 0.04 61 1023.7
20260506040539 55 21 2.0 6.0 0.00 0.04 0.04 62 1023.7
20260506040049 55 320 2.0 8.0 0.00 0.04 0.04 62 1023.5
20260506035551 55 359 3.0 11.0 0.00 0.04 0.04 61 1023.5
20260506035100 55 322 6.0 11.0 0.00 0.04 0.04 61 1023.3
20260506034512 55 354 5.0 11.0 0.00 0.04 0.04 61 1023.2
20260506034018 55 328 4.0 12.0 0.00 0.04 0.04 62 1023.0
20260506033523 56 347 4.0 15.0 0.00 0.04 0.04 61 1022.9
20260506033110 56 322 7.0 15.0 0.00 0.04 0.04 60 1022.7
20260506032502 56 318 5.0 11.0 0.00 0.04 0.04 67 1022.6
20260506032003 55 285 4.0 8.0 0.00 0.04 0.04 67 1022.3
20260506031538 55 303 4.0 8.0 0.00 0.04 0.04 68 1022.1
20260506031041 54 144 1.0 2.0 0.00 0.04 0.04 70 1021.9
20260506030552 55 141 0.0 0.0 0.00 0.04 0.04 67 1021.7
20260506030008 55 141 0.0 0.0 0.00 0.04 0.04 66 1021.6
20260506025515 55 141 0.0 1.0 0.00 0.04 0.04 65 1021.5
20260506025020 56 141 0.0 1.0 0.00 0.04 0.04 64 1021.3
20260506024534 56 141 0.0 0.0 0.00 0.04 0.04 63 1021.2
20260506024038 57 141 0.0 0.0 0.00 0.04 0.04 64 1021.0
20260506023547 57 141 0.0 1.0 0.00 0.04 0.04 62 1021.0
20260506023101 57 141 0.0 1.0 0.00 0.04 0.04 62 1021.0
20260506022505 57 141 0.0 1.0 0.00 0.04 0.04 61 1021.1
20260506022015 57 141 0.0 3.0 0.00 0.04 0.04 60 1020.8
20260506021556 57 141 0.0 4.0 0.00 0.04 0.04 60 1020.8
20260506021010 58 139 2.0 4.0 0.00 0.04 0.04 60 1020.8
20260506020513 58 162 1.0 2.0 0.00 0.04 0.04 58 1020.4
20260506020031 59 299 0.0 1.0 0.00 0.04 0.04 57 1020.2
20260506015535 59 299 0.0 2.0 0.00 0.04 0.04 56 1020.0
20260506015046 59 299 0.0 2.0 0.00 0.04 0.04 56 1020.0
20260506014559 60 299 0.0 4.0 0.00 0.04 0.04 56 1019.8
20260506014007 60 298 0.0 4.0 0.00 0.04 0.04 54 1019.9
20260506013517 60 24 2.0 3.0 0.00 0.04 0.04 54 1019.7
20260506013038 60 22 1.0 4.0 0.00 0.04 0.04 54 1019.9
20260506012539 60 4 1.0 4.0 0.00 0.04 0.04 53 1019.7
20260506012049 60 23 0.0 4.0 0.00 0.04 0.04 54 1019.8
20260506011501 61 75 1.0 5.0 0.00 0.04 0.04 53 1019.7
20260506011015 61 315 2.0 5.0 0.00 0.04 0.04 52 1019.7
20260506010521 61 314 1.0 4.0 0.00 0.04 0.04 52 1019.6
20260506010035 61 348 0.0 2.0 0.00 0.04 0.04 51 1019.7
20260506005542 61 354 0.0 3.0 0.00 0.04 0.04 52 1019.6
20260506005049 61 359 0.0 4.0 0.00 0.04 0.04 53 1019.3
20260506004511 61 346 2.0 5.0 0.00 0.04 0.04 50 1019.2
20260506004016 62 310 2.0 5.0 0.00 0.04 0.04 48 1019.2
20260506003519 62 287 2.0 7.0 0.00 0.04 0.04 49 1019.1
20260506003034 62 268 3.0 7.0 0.00 0.04 0.04 48 1019.3
20260506002540 62 283 2.0 6.0 0.00 0.04 0.04 49 1019.2
20260506002045 62 289 3.0 6.0 0.00 0.04 0.04 48 1019.1
20260506001609 63 295 2.0 5.0 0.00 0.04 0.04 47 1019.0
20260506001005 63 350 3.0 5.0 0.00 0.04 0.04 47 1018.9
20260506000514 63 329 1.0 8.0 0.00 0.04 0.04 46 1019.0
20260506000050 63 295 1.0 9.0 0.00 0.04 0.04 49 1018.9
20260505235555 63 328 3.0 9.0 0.00 0.04 0.04 48 1018.8
20260505235059 62 332 3.0 6.0 0.00 0.04 0.04 48 1018.9
20260505234547 62 21 2.0 6.0 0.00 0.04 0.04 49 1019.1
20260505234054 62 325 1.0 5.0 0.00 0.04 0.04 50 1019.1
20260505233558 62 326 1.0 8.0 0.00 0.04 0.04 52 1019.2
20260505233500 62 344 1.0 8.0 0.00 0.04 0.04 51 1019.2
20260505233013 61 315 4.0 8.0 0.00 0.04 0.04 48 1019.1
20260505232519 61 275 3.0 7.0 0.00 0.04 0.04 50 1019.3
20260505232029 61 272 2.0 10.0 0.00 0.04 0.04 54 1019.3
20260505231503 61 271 4.0 10.0 0.00 0.04 0.04 51 1019.3
20260505231012 60 324 4.0 10.0 0.00 0.04 0.04 54 1019.2
20260505230516 60 304 4.0 10.0 0.00 0.04 0.04 53 1019.2
20260505230033 60 278 2.0 10.0 0.00 0.04 0.04 54 1019.3
20260505225537 60 278 6.0 9.0 0.00 0.04 0.04 54 1019.3
20260505225043 60 292 4.0 13.0 0.00 0.04 0.04 53 1019.1
20260505224534 61 290 5.0 14.0 0.00 0.04 0.04 53 1019.1
20260505224030 60 287 8.0 14.0 0.00 0.04 0.04 53 1019.3
20260505223534 60 282 7.0 14.0 0.00 0.04 0.04 54 1019.2
20260505223054 60 292 8.0 16.0 0.00 0.04 0.04 57 1019.3
20260505222551 59 320 8.0 16.0 0.00 0.04 0.04 59 1019.4
20260505222057 59 302 6.0 15.0 0.00 0.04 0.04 61 1019.7
20260505221549 59 305 9.0 19.0 0.00 0.04 0.04 62 1019.9
20260505221049 59 318 13.0 19.0 0.00 0.04 0.04 64 1019.8
20260505220557 60 328 10.0 16.0 0.00 0.04 0.04 61 1019.6
20260505220027 60 273 9.0 18.0 0.00 0.04 0.04 59 1019.7
20260505215523 60 354 8.0 20.0 0.00 0.04 0.04 62 1019.9
20260505215029 60 308 7.0 20.0 0.00 0.04 0.04 61 1019.9
20260505214554 59 260 9.0 19.0 0.00 0.04 0.04 63 1020.1
20260505214045 60 301 10.0 19.0 0.00 0.04 0.04 60 1020.3
20260505213548 60 359 11.0 19.0 0.00 0.04 0.04 61 1020.0
20260505213048 61 345 10.0 19.0 0.00 0.04 0.04 57 1019.9
20260505212535 61 300 6.0 12.0 0.01 0.04 0.04 58 1019.6
20260505212043 61 290 6.0 12.0 0.01 0.04 0.04 59 1019.3
20260505211607 61 302 4.0 14.0 0.01 0.04 0.04 59 1019.3
20260505211503 61 280 4.0 14.0 0.01 0.04 0.04 59 1019.3
20260505211009 61 345 5.0 13.0 0.01 0.04 0.04 58 1019.1
20260505210518 62 313 6.0 13.0 0.01 0.04 0.04 56 1019.0
20260505210053 63 70 2.0 6.0 0.01 0.04 0.04 61 1019.1
20260505205557 63 33 2.0 6.0 0.01 0.04 0.04 59 1019.2
20260505205507 63 36 2.0 6.0 0.01 0.04 0.04 60 1019.2
20260505205006 62 25 1.0 6.0 0.01 0.04 0.04 65 1019.2
20260505204528 61 60 0.0 3.0 0.01 0.04 0.04 59 1019.3
20260505204022 60 156 0.0 5.0 0.01 0.04 0.04 63 1019.5
20260505203529 60 154 1.0 5.0 0.01 0.04 0.04 68 1019.9
20260505203042 60 162 1.0 8.0 0.01 0.04 0.04 66 1020.5
20260505202545 61 248 2.0 8.0 0.00 0.03 0.03 60 1020.8
20260505202054 61 217 2.0 7.0 0.00 0.03 0.03 57 1020.6
20260505201542 61 228 1.0 8.0 0.00 0.03 0.03 54 1020.4
20260505201032 62 293 4.0 8.0 0.00 0.03 0.03 55 1020.2
20260505200540 62 295 0.0 6.0 0.00 0.03 0.03 55 1019.9
20260505200057 62 62 2.0 8.0 0.00 0.03 0.03 54 1020.0
20260505195506 62 304 1.0 8.0 0.00 0.03 0.03 58 1020.1
20260505195006 61 298 4.0 8.0 0.00 0.03 0.03 57 1020.2
20260505194524 61 292 3.0 6.0 0.00 0.03 0.03 58 1020.0
20260505194031 61 25 1.0 7.0 0.00 0.03 0.03 60 1020.0
20260505193538 60 69 3.0 9.0 0.00 0.03 0.03 62 1020.1
20260505193051 61 4 5.0 9.0 0.00 0.03 0.03 60 1020.1
20260505192558 60 314 3.0 12.0 0.00 0.03 0.03 61 1020.2
20260505192502 60 264 3.0 12.0 0.00 0.03 0.03 62 1020.2
20260505192004 60 276 5.0 12.0 0.00 0.03 0.03 66 1020.4
20260505191518 59 196 6.0 13.0 0.00 0.03 0.03 65 1020.6
20260505191027 59 354 7.0 13.0 0.00 0.03 0.03 69 1020.5
20260505190527 59 328 6.0 12.0 0.00 0.03 0.03 68 1020.5
20260505190048 58 308 7.0 11.0 0.00 0.03 0.03 71 1020.6
20260505185546 57 326 4.0 14.0 0.00 0.03 0.03 76 1020.5
20260505185100 58 280 9.0 16.0 0.00 0.03 0.03 75 1020.8
20260505185002 58 289 7.0 16.0 0.00 0.03 0.03 74 1020.6
20260505184518 58 311 7.0 16.0 0.00 0.03 0.03 69 1020.7
20260505184025 59 288 8.0 16.0 0.00 0.03 0.03 65 1020.7
20260505183522 60 284 5.0 8.0 0.00 0.03 0.03 59 1020.4
20260505183048 61 293 3.0 7.0 0.00 0.03 0.03 60 1020.4
20260505182544 61 4 2.0 8.0 0.00 0.03 0.03 62 1020.3
20260505182056 60 315 2.0 8.0 0.00 0.03 0.03 60 1020.4
20260505181512 60 285 2.0 5.0 0.00 0.03 0.03 61 1020.3
20260505181023 60 324 1.0 4.0 0.00 0.03 0.03 60 1020.4
20260505180524 60 291 0.0 4.0 0.00 0.03 0.03 64 1020.5
20260505180043 59 36 0.0 4.0 0.00 0.03 0.03 68 1020.6
20260505175548 59 305 0.0 4.0 0.00 0.03 0.03 66 1020.6
20260505175057 58 276 2.0 4.0 0.00 0.03 0.03 64 1020.7
20260505174527 57 91 1.0 4.0 0.01 0.03 0.03 68 1020.7
20260505174023 56 354 0.0 4.0 0.01 0.03 0.03 69 1020.6
20260505173532 56 64 1.0 4.0 0.01 0.03 0.03 71 1020.8
20260505173043 56 37 1.0 4.0 0.01 0.03 0.03 72 1020.8
20260505172547 55 37 1.0 5.0 0.01 0.03 0.03 74 1020.8
20260505172055 55 60 1.0 6.0 0.01 0.03 0.03 75 1020.8
20260505171541 55 72 1.0 7.0 0.02 0.03 0.03 76 1021.0
20260505171044 54 77 3.0 7.0 0.02 0.03 0.03 75 1021.0
20260505170604 54 28 1.0 6.0 0.03 0.03 0.03 80 1021.1
20260505170013 54 112 0.0 6.0 0.03 0.03 0.03 85 1021.1
20260505165522 53 71 0.0 3.0 0.03 0.03 0.03 86 1021.0
20260505165025 53 37 0.0 3.0 0.02 0.02 0.03 85 1021.0
20260505164538 52 35 1.0 4.0 0.02 0.02 0.02 84 1021.1
20260505164050 52 70 1.0 4.0 0.02 0.02 0.02 83 1021.2
20260505163557 52 79 2.0 5.0 0.02 0.02 0.02 82 1021.2
20260505163009 52 18 1.0 8.0 0.02 0.02 0.02 83 1021.1
20260505162514 52 359 3.0 8.0 0.02 0.02 0.02 82 1021.0
20260505162016 52 11 1.0 8.0 0.02 0.02 0.02 81 1021.0
20260505161536 52 4 2.0 10.0 0.01 0.01 0.01 80 1021.1
20260505161034 52 359 1.0 10.0 0.01 0.01 0.01 79 1021.1
20260505160545 53 310 3.0 6.0 0.00 0.00 0.00 77 1021.2
20260505153105 58 322 3.0 8.0 0.00 0.00 0.00 59 1020.8
20260505152506 58 324 3.0 8.0 0.00 0.00 0.00 54 1020.8
20260505152015 58 330 2.0 7.0 0.00 0.00 0.00 53 1020.7
20260505151523 58 290 2.0 6.0 0.00 0.00 0.00 56 1020.9
20260505151028 58 8 1.0 3.0 0.00 0.00 0.00 62 1020.7
20260505150539 59 314 0.0 3.0 0.00 0.00 0.00 63 1020.8
20260505140557 58 224 3.0 8.0 0.00 0.00 0.00 55 1021.0